Disclaimer

Please do not use the information listed here in-flight or in-navigation, as they are not provided to us by the airports but are provided by volunteers, so they might be outdated.

Search


Regions


Airport information page

No radio frequency information is available.

Airport informations:
Latitude: 64° 11' 27.32" N
Longitude: 051° 40' 41.03" W
Elevation: 283 feet - 86 meters
Operating hours: N/A
Operating agency: Civil government, landing fees and diplomatic clearance may be required
Timezone: N/A
Fuel: Jet A1, without icing nhibitor.

100/130 MIL Spec, low lead, aviation gasoline (BLUE)

Runway information:
05/23 - 3117 x 98 feet< - >950 x 30 meters

Recent METARs:
BGGH 200450Z AUTO 30004KT 9999NDV BKN022/// OVC035/// M08/M12 Q0997
BGGH 200550Z AUTO 32004KT 300V360 9999NDV FEW019/// SCT029/// BKN039/// M09/M13 Q0997
BGGH 200550Z AUTO 32004KT 300V360 9999NDV FEW019/// SCT029/// BKN039/// M09/M13 Q0997

Airport on the map: